Location: Fort Worth, Tx
(32.7431°N, 97.3695°W)
Time: 11:44:11
(UTC-05:00)

Transit 2A - All Passes

Search period start: 22 February 2024 00:00
Search period end: 03 March 2024 00:00
Orbit: 600 x 953 km, 66.7° (Epoch: 22 February)

Date Brightness Start Highest point End Pass type
(mag) Time Alt. Az. Time Alt. Az. Time Alt. Az.
22 Feb - 06:52:05 10° NNW 06:57:01 58° ENE 07:02:28 10° SE visible
22 Feb - 08:37:02 10° WNW 08:39:46 14° WSW 08:42:37 10° SW daylight
22 Feb - 21:28:00 10° SW 21:32:24 60° WNW 21:36:41 10° NNE visible
23 Feb - 06:17:21 10° N 06:21:59 37° ENE 06:27:02 10° SE visible
23 Feb - 08:00:53 10° WNW 08:04:53 23° WSW 08:09:11 10° SSW daylight
23 Feb - 20:52:57 10° SSW 20:57:24 79° ESE 21:01:44 10° NNE visible
24 Feb - 05:42:48 10° N 05:46:53 24° ENE 05:51:15 10° ESE visible
24 Feb - 07:25:19 10° NW 07:29:58 36° WSW 07:35:03 10° S visible
24 Feb - 20:18:13 10° S 20:22:28 44° ESE 20:26:35 10° NE visible
24 Feb - 22:03:25 10° W 22:05:42 14° NW 22:07:59 10° NNW visible
25 Feb - 05:08:36 10° NNE 05:11:43 16° NE 05:15:00 10° E visible
25 Feb - 06:50:02 10° NW 06:55:01 57° WSW 07:00:31 10° S visible
25 Feb - 19:43:51 10° SSE 19:47:33 26° ESE 19:51:10 10° NE visible
25 Feb - 21:27:06 10° WSW 21:30:31 22° WNW 21:33:55 10° N visible
26 Feb - 04:35:31 10° NE 04:36:28 10° NE 04:37:27 10° ENE visible
26 Feb - 06:14:57 10° NNW 06:20:02 90° W 06:25:40 10° SSE visible
26 Feb - 19:10:05 10° SE 19:12:41 15° ESE 19:15:16 10° ENE daylight
26 Feb - 20:51:22 10° SW 20:55:24 35° WNW 20:59:24 10° N visible
27 Feb - 05:40:03 10° NNW 05:45:02 58° ENE 05:50:32 10° SE visible
27 Feb - 07:24:56 10° WNW 07:27:47 15° WSW 07:30:45 10° SW visible
27 Feb - 20:15:59 10° SW 20:20:22 60° WNW 20:24:39 10° NNE visible
28 Feb - 05:05:18 10° N 05:09:59 37° ENE 05:15:06 10° SE visible
28 Feb - 06:48:49 10° WNW 06:52:54 23° WSW 06:57:17 10° SSW visible
28 Feb - 19:40:56 10° SSW 19:45:22 78° ESE 19:49:42 10° NNE visible
29 Feb - 04:30:45 10° N 04:34:53 25° ENE 04:39:19 10° ESE visible
29 Feb - 06:13:15 10° NW 06:17:59 37° WSW 06:23:08 10° S visible
29 Feb - 19:06:13 10° S 19:10:25 44° ESE 19:14:32 10° NE daylight
29 Feb - 20:51:22 10° W 20:53:40 14° NW 20:55:57 10° NNW visible
01 Mar - 03:56:31 10° NNE 03:59:42 16° NE 04:03:04 10° E night (unlit)
01 Mar - 05:37:58 10° NW 05:43:02 58° WSW 05:48:35 10° S visible
01 Mar - 18:31:51 10° SSE 18:35:31 26° ESE 18:39:06 10° NE daylight
01 Mar - 20:15:03 10° WSW 20:18:29 22° WNW 20:21:52 10° N visible
02 Mar - 03:23:18 10° NE 03:24:27 11° NE 03:25:38 10° ENE night (unlit)
02 Mar - 05:02:54 10° NNW 05:08:03 89° ESE 05:13:44 10° SSE visible
02 Mar - 17:58:06 10° SE 18:00:39 15° ESE 18:03:09 10° ENE daylight
02 Mar - 19:39:20 10° SW 19:43:21 35° WNW 19:47:21 10° N daylight
